www.pogodaiklimat.ru

Погода и климат >> Архив погоды >> Россия >> Иркутская область >> Большое Голоустное


ПОГОДА в Большом Голоустном

  • Прогноз погоды в Большом Голоустном
  • Монитор погоды в Большом Голоустном

АРХИВ ПОГОДЫ в Большом Голоустном

Время (UTC), дата Ветер
(напр.,м/с)
 
Видим.   Явления Облачность Т
(С)
Тd
(С)
f
(%)
Тe
(С)
Тes
(С)
Комфортность P
(гПа)
Po
(гПа)
Тmin
(С)
Tmax
(С)
R
(мм)
R24
(мм)
S
(см)
18 11.09 В 1
{12}
н/о {ливн. осадки} 10/10 600 м
[Cb cap]
+9.8 +5.8 76 +9 +9 1011.6 957.3
21 11.09 С 2 н/о 10/6 600 м
[Sc Ac As]
+9.7 +6.1 78 +8 +8 1013.1 958.7
00 12.09 ЮЗ 2 50 км 8/5 600 м
[Sc Ac lent Cc]
+10.0 +6.5 79 +9 +9 1013.1 958.7 +9.3 9
03 12.09 ЮЗ 6 50 км 6/4 600 м
[Cb cap Ac lent]
+12.8 +8.1 73 +10 +12 1013.9 960.0
06 12.09 ЮЗ 6
{10}
50 км 8/6 600 м
[Cb cap Ac lent]
+12.9 +8.8 76 +11 +12 1012.5 958.7
09 12.09 ЮЗ 3 50 км {ливн. осадки} 6/6 600 м
[Cb cap]
+14.4 +8.6 68 +14 +14 1010.7 957.3
12 12.09 С 3 50 км {ливн. осадки} 8/3 600 м
[Cb cap Ac lent]
+12.3 +7.2 71 +11 +11 1012.6 958.7 +15.6 0.0
15 12.09 СЗ 9-14
{20}
н/о слаб. ливневой дождь {гроза} 10/10 600 м
[Cb cap]
+6.8 +3.9 82 +1 +1 1017.5 962.2
18 12.09 З 2
{16}
н/о {гроза, ливн. осадки} 10/10 600 м
[Cb cap]
+7.1 +3.7 79 +5 +5 1019.2 963.9
21 12.09 СЗ 2 н/о 9/6 600 м
[Cb cap Ci sp]
+6.8 +2.8 76 +5 +5 1018.1 962.8
00 13.09 СЗ 4 50 км 4/3 600 м
[Cu Sc Ac lent Ci sp]
+7.2 +2.7 73 +4 +4 1019.3 964.0 +4.2 8
03 13.09 Ю 3 50 км 4/3 600 м
[Cu Sc Ac lent Ci sp]
+9.5 +4.1 69 +7 +11 1017.4 962.7
06 13.09 Ю 3 50 км 4/1 600 м
[Sc Ac lent Ci fib]
+10.6 +4.9 68 +9 +13 1015.7 961.3
09 13.09 Ю 2 50 км 9/8 600 м
[Cb cap Ci sp]
+10.7 +4.4 65 +10 +10 1012.9 958.7
12 13.09 С 1 50 км 10/10 600 м
[Cb cap]
+9.1 +5.5 78 +9 +9 1013.2 958.7 +11.3
15 13.09 С 4 н/о 9/0
[Ac lent Ci sp]
+8.6 +3.2 69 +6 +6 1011.9 957.3
18 13.09 С 6 н/о 8/0
[Ac lent Cc]
+5.9 +3.2 83 +1 +1 1012.4 957.3
21 13.09 С 6 н/о 9/0
[Cc]
+4.4 +1.9 84 -1 -1 1011.4 956.0
00 14.09 С 5 50 км 9/0
[Ac lent Cc]
+2.8 +1.2 89 -3 -3 1011.7 956.0 +2.8
03 14.09 С 2 50 км 9/0
[Ac lent Cc]
+12.3 +3.5 55 +12 +12 1009.8 956.0
06 14.09 С 9-15
{17}
50 км 9/6 600 м
[Cb cap Ac lent Cc]
+9.1 +2.0 61 +5 +5 1013.3 958.7
09 14.09 СЗ 3
{15}
50 км 9/8 600 м
[Sc Ac lent]
+9.4 +0.6 54 +7 +8 1016.0 961.3
12 14.09 СЗ 4
{11}
50 км {ливн. осадки} 9/8 600 м
[Sc Ac lent Cc]
+7.3 -3.0 48 +4 +4 1019.3 964.0 +12.7 0.0
15 14.09 С 2
{11}
н/о 8/8 600 м
[Cu Sc]
+5.2 -3.3 54 +3 +3 1022.6 966.7
18 14.09 З 1 н/о 3/1 600 м
[Sc Cc]
+1.4 -2.7 74 -0 -0 1024.7 968.0
21 14.09 С 2 н/о 3/3 600 м
[Sc Ci sp]
+0.6 -2.4 80 -3 -3 1023.5 966.7
00 15.09 С 5 50 км 8/0
[Ci sp]
+1.5 -2.4 75 -4 -4 1021.9 965.3 -0.4
03 15.09 В 2 50 км 9 баллов +8.7 -2.6 45 +7 +8 1019.0 964.0
06 15.09 ЮВ 2 50 км 6 баллов +9.1 +0.5 55 +8 +11 1017.5 962.7
09 15.09 Ю 2 50 км 9/4 600 м
[Cu Sc Ac lent Cc]
+8.5 +2.3 65 +7 +7 1016.2 961.3
12 15.09 СВ 2 50 км 9/9 600 м
[Cb cap]
+7.8 +4.0 77 +6 +6 1014.9 960.0 +9.9
15 15.09 С 2 н/о 10/6 600 м
[Sc Ac As]
+8.0 +4.2 77 +6 +6 1014.9 960.0
18 15.09 С 3 н/о 10/4 600 м
[Sc Ac lent]
+7.7 +3.7 76 +5 +5 1014.9 960.0
21 15.09 С 4 н/о 8/0
[Ac lent Cc]
+6.6 +3.0 78 +3 +3 1015.1 960.0
00 16.09 С 5 50 км 9/3 600 м
[Sc Ac trans Cc]
+5.7 +2.9 82 +1 +1 1015.3 960.0 +4.8
03 16.09 ЮЗ 5 50 км 9/3 600 м
[Cu Sc Ac trans Ci sp]
+12.4 +7.1 70 +10 +11 1015.3 961.3
06 16.09 СЗ 7 20 км в посл. час ливневой дождь 9 баллов +11.5 +5.4 66 +8 +9 1015.5 961.3
09 16.09 З 6-12
{12}
20 км {ливн. осадки} 9/3 600 м
[Cb cap Ac lent Ci fib]
+10.7 +4.2 64 +8 +8 1018.5 964.0
12 16.09 СЗ 4 50 км 6 баллов +9.1 +2.0 61 +6 +6 1021.7 966.7 +15.0 5
15 16.09 З 2 н/о 6 баллов +7.9 -0.3 56 +6 +6 1024.8 969.3
18 16.09 С 2 н/о 7 баллов +3.4 +1.0 84 0 0 1028.5 972.0
21 16.09 С 5 н/о 10 баллов +2.8 +0.9 87 -3 -3 1028.7 972.0
00 17.09 С 5 50 км 9 баллов +4.6 +1.5 80 -0 -0 1029.6 973.3 +2.5
03 17.09 Ю 3 50 км 9 баллов +9.6 +3.1 64 +8 +8 1028.6 973.3
06 17.09 Ю 2 50 км 1 балл +10.5 +4.4 66 +9 +17 1027.0 972.0
12 17.09 С 1 50 км ясно +6.6 +3.6 81 +6 +6 1025.0 969.3 +11.3
15 17.09 С 1 н/о ясно +5.0 +2.9 86 +4 +4 1025.3 969.3
18 17.09 С 1 н/о 6 баллов +4.3 +2.3 87 +3 +3 1024.1 968.0
21 17.09 З 1 н/о 9 баллов +4.4 +2.1 85 +3 +3 1022.7 966.7
00 18.09 С 1 50 км 9 баллов +5.4 +2.2 80 +4 +4 1022.5 966.7 +3.2
03 18.09 В 4 50 км 9 баллов +11.5 +5.1 65 +9 +10 1021.2 966.7
06 18.09 Ю 3 50 км 7 баллов +11.8 +6.3 69 +10 +12 1021.2 966.7
09 18.09 Ю 2 50 км 2 балла +11.9 +7.6 75 +11 +13 1019.6 965.3
12 18.09 С 1 20 км 2 балла +9.8 +7.1 83 +9 +9 1020.1 965.3 +12.2

 

Местоположение метеостанции Большое Голоустное (Иркутская область, Россия): широта 52.03 долгота 105.40 высота над уровнем моря 461 м.

В архиве по умолчанию представлена погода в Большом Голоустном за последнюю неделю. Архивные данные за месяц целиком и за предыдущие месяцы, начиная с января 2011 года, Вы можете получить, выбрав интересующий диапазон дат из раскрывающегося списка и нажав кнопку "Ввод!".


*Определитесь, кто Вы:
робот инопланетянин человек

Внимание! Время в таблицах - всемирное. Для получения местного времени необходимо прибавить поправку, которая равна 8 ч.

Смотрите также архив погоды в соседних городах и на ближайших метеорологических станциях:

Погода в Бабушкине (Бурятия, Россия) (46 км)
Погода в Танхое (Бурятия, Россия) (57 км)
Погода в Иркутске (Иркутская область, Россия) (80 км)
Погода в Иркутске аэропорт (Иркутская область, Россия) (80 км)
Погода в Кабанске (Бурятия, Россия) (82 км)
Погода в Хомутово (Иркутская область, Россия) (89 км)
Погода в Байкальске (Иркутская область, Россия) (99 км)
Погода в Усть-Ордынском (Иркутская область, Россия) (99 км)
Погода в Баяндае (Иркутская область, Россия) (119 км)
Погода в Ангарск (Иркутская область, Россия) (120 км)

Пояснения к столбцам:

Ветер - указаны скорость ветра в м/с - средняя за 10 мин, порывы в срок и между сроками (в фигурных скобках) и направление, откуда дует ветер: С - северный, СВ - северо-восточный, В - восточный, ЮВ - юго-восточный, Ю - южный, ЮЗ - юго-западный, З - западный, СЗ - северо-западный.
Видимость - горизонтальная дальность видимости в метрах или километрах. При видимости от 1 до 10 км при отсутствии осадков обычно наблюдается дымка, при ухудшении видимости до 1 км и менее - туман. В сухую погоду видимость может ухудшаться дымом, пылью или мглою.
Явления - указаны атмосферные явления, наблюдавшиеся в срок или в последний час перед сроком; фигурными скобками обозначены явления, наблюдавшиеся между сроками (за 1-3 часа до срока); квадратными скобками обозначены град или гололедные отложения с указанием их диаметра в мм.
Облачность - указаны через наклонную черту общая и нижняя облачность в баллах и высота нижней границы облаков в метрах; квадратными скобками обозначены формы облаков: Ci - перистые, Cs - перисто-слоистые, Cc - перисто-кучевые, Ac - высококучевые, As - высокослоистые, Sc - слоисто-кучевые, Ns - слоисто-дождевые, Cu - кучевые, Cb - кучево-дождевые. Подробнее классификацию облаков см. в Атласе облаков (PDF).
T - Температура воздуха - температура, измеренная на высоте 2 м над землей.
Td - Температура точки росы - температура, при понижении до которой содержащийся в воздухе водяной пар достигнет насыщения.
f - Относительная влажность воздуха - влажноcть воздуха, измеренная на высоте 2 м над землей.
Te - Эффективная температура - температура, которую ощущает одетый по сезону человек в тени. Характеристика душности погоды. При расчете учитывается влияние влажности воздуха и скорости ветра на теплоощущения человека.
Tes - Эффективная температура на солнце - температура, которую ощущает человек, с поправкой на солнечный нагрев. Характеристика знойности погоды. Зависит от высоты солнца над горизонтом, облачности и скорости ветра. Ночью, в пасмурную погоду, а также при ветре 12 м/с и более поправка равна нулю.
P - Атмосферное давление - приведенное к уровню моря атмосферное давление.
Po - Атмосферное давление - измеренное на уровне метеостанции атмосферное давление.
Tmin - Минимальная температура - минимум температуры воздуха на высоте 2 м над землей.
Tmax - Максимальная температура - максимум температуры воздуха на высоте 2 м над землей.
R - Количество осадков - Количество выпавших осадков за период времени, мм. При наведении курсора мыши на число - период времени, за который выпало указанное количество осадков.
R24 - Количество осадков - Количество выпавших осадков за 24 часа, мм.
S - Снежный покров - Высота снежного покрова, см. При наведении курсора мыши на число - состояние снежного покрова и степень покрытия местности в баллах.